Theta_e
322 319 319 318 318 316 317 317 318 322 322 323 323 323 323 323 322 322 313 321 326 343 342 335 328 330 334 330 332 330 320 315 315 315 317 327 325 332 335 330 330 332 332 336 341
320 319 318 318 318 317 316 316 317 321 322 322 322 322 322 323 321 314 326 339 343 345 331 324 324 326 328 325 331 326 321 316 323 323 322 325 326 329 328 328 329 331 336 340 341
319 319 318 317 317 316 316 316 317 320 322 322 321 321 322 323 316 316 338 340 343 339 328 326 326 327 321 328 326 325 320 323 324 326 327 325 326 330 328 325 328 328 335 338 339
318 319 317 316 316 316 316 316 316 318 321 321 321 321 322 326 311 324 344 344 344 331 326 323 321 320 323 321 326 321 323 325 325 327 327 325 329 328 329 329 334 334 337 338 337
318 317 317 316 316 315 316 315 315 315 319 320 321 321 325 320 320 341 345 343 334 326 323 323 321 321 320 322 325 322 324 326 326 327 327 328 327 327 328 333 333 335 337 336 336
318 317 316 316 316 315 315 314 314 314 317 320 321 321 323 316 328 337 328 333 328 323 323 322 321 324 322 322 322 324 324 325 325 326 328 326 326 328 330 334 333 334 334 335 335
319 317 316 316 316 315 315 314 314 314 316 321 323 325 320 318 330 337 328 328 325 324 320 323 325 325 326 321 327 324 320 322 325 327 326 329 323 325 331 332 331 333 333 333 335
318 317 315 315 315 315 315 315 315 316 318 322 324 325 317 325 334 328 325 323 326 325 322 324 325 325 324 328 323 319 321 314 321 324 326 327 314 325 332 330 329 331 331 331 333
318 317 316 315 315 315 315 315 317 319 321 324 326 323 315 326 324 328 326 322 324 323 324 328 327 324 324 318 315 317 309 311 313 322 323 325 317 329 333 330 329 330 331 330 330
317 317 316 315 315 314 313 314 318 321 324 326 324 317 317 316 322 326 327 323 319 319 318 324 323 319 319 314 304 306 308 310 310 318 321 320 321 325 331 329 329 330 330 329 328
317 316 316 315 315 313 317 323 319 320 321 315 314 315 316 320 325 322 324 321 321 319 314 319 314 311 312 313 313 311 310 309 313 317 317 317 318 322 328 330 328 330 329 328 327
316 316 315 314 314 312 317 314 317 317 313 318 317 317 319 321 315 320 324 318 317 313 315 313 309 314 314 312 311 311 309 309 314 318 318 317 317 322 325 327 330 330 330 329 328
315 315 314 313 313 315 316 315 321 320 314 314 316 316 317 319 316 317 321 319 316 314 313 310 312 314 312 311 309 310 308 309 309 316 319 318 314 316 324 328 330 331 333 333 330
314 313 313 312 313 321 315 320 321 320 310 309 312 316 318 318 314 320 322 318 315 312 313 312 315 312 310 309 310 306 312 311 311 312 305 317 303 313 318 322 326 329 331 332 332
314 313 313 311 321 317 320 322 320 319 299 312 312 320 316 314 316 316 321 318 312 313 313 310 312 310 309 310 312 308 313 313 312 312 311 309 308 311 318 314 319 325 330 332 334
313 313 313 316 322 320 320 320 321 307 298 310 316 314 311 312 312 316 316 318 318 313 314 312 316 313 312 313 313 314 313 314 314 310 302 307 307 306 312 316 318 322 325 329 331
312 311 313 321 318 322 322 320 307 301 309 309 311 315 312 308 309 310 311 311 308 306 307 311 310 313 313 310 314 315 311 303 300 298 298 310 306 307 316 317 319 320 323 327 331
311 309 314 322 327 323 322 314 300 304 308 315 313 314 311 314 312 312 310 308 313 311 307 302 302 310 314 312 310 312 311 302 296 297 300 308 302 308 316 319 322 323 324 325 325
309 323 322 323 323 323 318 305 305 307 312 312 312 309 310 313 313 313 312 309 312 314 306 305 304 313 315 317 316 312 308 313 306 306 301 304 307 313 316 316 320 320 321 322 324
325 326 320 323 324 320 314 303 308 312 314 314 306 311 307 310 310 311 310 315 312 316 316 311 304 312 315 317 315 313 313 305 306 297 295 299 302 304 309 312 315 318 320 322 324
327 316 319 323 323 318 308 308 309 312 314 311 309 307 310 310 311 310 310 314 316 316 318 315 311 309 313 311 310 310 308 309 308 305 298 295 299 310 311 314 315 317 320 323 322
325 312 321 322 313 316 310 311 307 311 317 314 316 313 313 312 312 311 310 314 319 319 313 317 314 307 309 313 313 311 309 308 302 301 304 301 302 314 314 315 317 317 320 322 322
322 317 322 323 308 309 313 310 312 311 311 312 313 318 318 314 311 312 313 318 319 318 316 318 312 305 306 308 311 308 310 310 309 310 302 299 301 315 314 315 316 317 319 320 319
323 309 313 319 319 314 310 309 309 313 313 315 316 319 317 315 318 313 313 317 319 318 317 320 314 309 303 305 309 306 307 309 309 304 303 304 305 309 310 312 314 316 315 315 314
332 324 321 306 312 317 317 314 311 309 318 320 317 318 316 313 314 314 315 317 318 317 318 319 311 311 310 308 309 307 306 306 305 306 303 305 305 306 309 312 314 314 314 313 311
328 328 328 324 321 320 312 316 313 313 314 313 315 314 318 316 316 314 316 316 315 318 317 318 312 312 308 309 309 306 307 307 307 307 306 304 304 309 310 311 311 312 312 311 310
332 336 330 314 321 319 318 316 316 319 319 320 319 318 317 318 321 321 323 321 323 318 318 317 315 310 304 308 307 303 307 308 308 308 306 302 306 309 307 307 307 308 309 309 310
Wind_Speed
11 10 10 9 9 9 8 7 8 7 6 6 6 6 6 7 9 8 10 4 7 14 9 9 7 6 6 0 2 3 6 6 6 3 9 8 7 3 1 4 4 3 2 5 20
12 12 11 10 9 9 8 8 7 8 7 6 6 6 6 7 9 12 6 11 17 13 13 13 9 8 3 1 2 4 4 5 5 5 1 7 8 7 6 5 8 7 6 12 19
12 12 11 11 10 9 8 8 7 9 7 6 6 7 7 8 8 6 15 14 16 12 8 8 6 8 4 2 2 3 8 4 4 0 4 6 9 7 9 7 6 8 11 15 18
13 12 12 11 10 9 9 8 8 9 8 7 6 6 6 8 9 9 12 15 14 10 10 8 8 8 5 1 2 3 2 1 2 3 6 9 8 10 12 6 4 3 10 16 18
12 13 12 11 10 10 9 9 9 9 10 8 7 6 6 9 6 12 14 14 14 9 9 8 6 5 5 3 2 4 2 3 2 7 8 6 11 13 11 5 3 5 11 15 15
11 13 13 11 11 10 10 9 9 9 10 9 7 4 7 9 5 10 16 18 11 10 8 6 4 5 3 3 6 2 3 6 4 5 5 10 9 4 10 8 9 11 13 14 15
10 13 13 12 12 11 10 10 10 10 10 8 6 6 8 6 4 7 15 14 10 9 4 6 5 8 5 1 2 2 8 6 9 7 6 8 12 15 11 11 12 13 13 13 15
11 10 14 13 12 12 11 11 11 11 9 8 6 6 2 4 4 9 12 10 9 4 3 1 5 5 6 2 5 7 4 8 4 6 2 9 12 4 13 12 14 13 12 13 14
12 10 13 14 13 12 13 14 8 5 5 5 7 7 6 3 6 11 12 11 10 6 3 2 7 4 4 8 10 8 8 8 3 7 3 13 14 8 5 11 13 13 13 13 14
13 11 12 13 13 13 14 7 3 6 6 7 5 6 5 4 8 11 9 11 7 11 7 8 7 9 7 9 9 12 12 7 6 5 10 12 18 8 7 11 13 13 13 13 14
13 12 12 12 12 12 11 5 7 7 7 6 2 5 7 7 8 9 11 10 8 10 10 10 10 10 8 7 10 12 12 11 9 2 8 13 15 14 8 12 13 14 15 14 14
14 13 14 13 11 11 7 6 4 6 4 9 8 7 5 1 8 10 11 12 10 12 4 8 12 8 7 6 9 10 10 10 6 3 9 12 16 15 9 13 13 15 16 15 14
13 13 14 12 10 5 6 5 1 8 7 6 5 7 6 10 11 16 17 13 12 16 15 16 13 1 8 13 8 14 16 10 11 3 12 10 18 12 4 8 10 13 15 16 16
13 15 13 13 6 1 5 2 5 6 7 7 7 5 7 8 12 7 16 10 10 15 18 11 9 9 8 14 15 13 13 10 7 8 12 3 14 16 3 9 9 11 13 15 14
13 14 10 7 7 5 6 4 4 6 5 5 6 4 3 16 16 13 14 13 14 13 10 16 15 11 12 16 15 15 11 9 8 11 11 18 8 8 5 9 4 4 11 13 16
16 14 8 6 4 5 5 3 5 8 2 5 4 4 8 13 15 8 10 11 7 14 11 18 12 7 13 17 14 10 9 8 9 12 13 5 5 11 11 8 8 5 5 6 10
16 14 7 4 3 4 4 5 7 6 3 4 1 3 4 6 11 13 16 15 14 13 17 18 17 16 8 15 9 9 11 12 10 9 9 4 5 9 9 7 9 7 4 2 5
18 9 7 5 3 6 5 7 6 2 1 2 3 2 4 2 6 6 12 15 20 18 16 14 12 13 9 10 11 4 7 9 19 15 17 4 5 5 5 6 5 3 3 4 4
20 4 3 3 5 4 7 8 1 2 2 2 3 4 4 4 5 5 11 16 11 11 17 14 12 3 3 4 6 5 8 7 11 18 10 5 3 8 2 3 3 3 1 3 5
4 2 4 1 6 6 7 4 1 0 3 3 3 2 4 1 6 3 3 4 5 5 6 5 11 3 7 6 3 6 4 7 7 9 12 5 7 7 12 12 12 4 2 2 4
5 4 6 7 4 6 8 3 3 2 4 4 3 5 4 5 7 7 3 3 2 1 5 2 5 5 5 7 7 5 7 3 5 7 10 9 6 8 11 11 12 12 9 1 4
4 3 5 4 7 3 6 1 2 3 3 5 5 6 6 3 7 5 3 0 4 5 4 3 4 7 3 3 2 3 5 4 7 6 3 7 5 9 11 11 11 11 9 7 4
3 2 5 5 7 7 4 4 4 5 4 4 5 5 3 4 5 4 3 3 4 4 5 2 3 7 11 5 2 2 2 3 5 6 12 8 5 10 14 13 12 11 10 8 6
4 3 4 3 1 6 3 8 9 5 10 6 5 5 6 7 5 3 3 3 4 7 5 4 4 7 10 5 5 4 4 4 5 8 7 3 9 15 13 14 11 8 7 8 8
2 4 5 7 6 3 3 2 8 5 5 6 5 11 7 5 6 7 4 6 4 9 3 4 6 5 1 1 3 3 3 1 1 4 5 10 6 10 11 9 8 5 4 4 6
6 5 2 3 1 5 3 1 5 5 5 6 10 7 8 9 7 10 6 5 3 6 3 3 4 5 5 5 4 1 2 2 2 5 2 3 8 6 5 8 9 7 6 2 4
3 3 5 4 3 5 2 3 4 5 3 6 8 9 9 3 3 4 4 3 3 3 6 5 3 5 1 1 3 6 4 2 5 5 6 6 6 6 7 7 7 6 5 4 5
Wind_Direction
358 357 350 349 345 341 337 338 334 332 326 322 320 323 315 312 293 222 229 90 140 162 202 153 192 207 233 270 324 311 220 140 120 175 109 145 193 146 97 156 199 147 21 83 156
354 352 349 350 343 341 336 330 329 327 323 317 317 317 309 318 251 234 132 113 135 173 170 179 180 190 196 164 163 273 279 69 36 62 117 166 230 167 214 192 199 174 121 137 160
352 351 351 348 344 339 330 325 325 322 319 312 305 306 307 292 229 198 115 138 158 190 209 209 186 222 252 247 125 94 13 86 123 325 291 214 208 190 225 227 233 208 163 161 173
352 351 350 347 342 337 330 327 321 320 318 309 304 301 299 232 182 79 124 144 164 203 183 186 197 222 263 123 91 267 148 217 104 203 241 238 219 208 228 268 52 233 164 175 185
351 350 348 345 341 336 331 325 318 313 314 309 299 296 250 214 81 114 124 140 169 190 200 205 217 275 329 5 199 253 170 223 218 249 249 230 233 241 228 197 200 176 173 184 190
351 348 342 343 341 333 329 319 311 306 306 302 289 276 245 212 68 122 141 161 181 205 202 226 312 342 305 355 302 12 290 261 241 230 223 229 231 241 227 155 188 177 182 187 192
344 348 342 341 340 333 327 317 306 297 295 288 269 257 253 65 46 134 158 177 189 207 222 228 284 272 340 76 2 302 267 241 225 218 229 236 246 230 246 186 193 190 190 190 194
341 346 344 341 338 332 324 308 291 276 272 265 232 246 257 44 94 152 167 165 193 212 276 283 253 282 274 110 217 257 230 265 121 221 193 221 291 71 184 196 208 200 195 194 192
341 336 344 340 334 333 320 313 292 249 219 189 213 248 147 143 187 155 176 171 172 179 157 162 205 267 201 243 241 190 312 295 245 213 212 223 289 60 168 212 226 209 202 200 199
340 337 340 338 334 332 317 281 26 173 194 221 262 234 178 168 134 160 181 175 169 172 173 207 220 244 225 250 337 341 329 316 262 144 222 239 257 236 195 222 232 220 214 210 210
339 334 336 334 331 331 307 197 206 180 211 281 131 289 129 107 151 178 170 184 163 202 220 202 240 242 338 334 300 312 315 295 310 182 255 264 270 279 222 222 236 228 218 214 215
336 334 337 330 323 320 274 257 22 5 262 224 249 260 234 287 174 162 174 197 205 222 207 206 240 288 333 295 291 293 298 295 279 254 236 283 277 286 260 238 233 231 223 219 212
331 335 336 328 320 254 248 255 321 343 257 155 208 245 209 211 214 177 193 210 220 227 222 259 284 327 280 286 251 308 307 298 288 145 239 268 268 264 211 246 229 233 232 218 219
330 338 334 326 274 120 214 165 225 317 253 130 191 192 199 227 221 209 205 222 218 238 237 261 283 277 262 268 301 299 319 299 264 243 299 247 295 302 312 265 234 239 227 228 219
329 334 326 320 323 232 58 310 285 207 236 122 136 77 239 218 215 192 207 213 256 234 237 249 245 231 281 277 298 286 309 285 261 264 316 259 249 307 156 282 5 280 233 229 223
328 329 319 197 227 306 306 281 228 231 148 140 143 200 197 207 227 203 196 224 282 271 244 268 284 274 257 275 290 281 251 229 242 259 267 16 299 307 9 10 325 3 330 224 235
327 319 257 303 32 338 306 206 227 263 127 134 49 246 223 161 215 223 217 216 235 223 235 236 236 243 262 260 231 232 257 271 288 280 283 38 291 330 8 9 342 332 351 188 194
326 304 180 271 310 312 218 226 251 71 216 94 316 172 207 226 187 223 245 241 224 253 268 263 245 218 203 246 303 235 305 292 292 312 324 328 288 59 355 332 334 357 331 153 162
313 180 206 157 210 251 229 228 310 169 15 300 205 252 145 160 301 252 229 257 271 221 246 259 243 121 239 232 258 134 255 8 291 276 257 314 115 236 185 33 333 333 287 170 174
301 220 96 31 171 222 235 277 235 312 318 257 291 310 302 331 276 251 242 59 272 290 268 289 267 158 137 189 143 283 31 272 247 281 302 340 254 14 16 6 359 327 275 175 165
242 209 76 133 203 223 229 175 240 181 272 282 298 295 280 307 282 276 277 97 9 305 267 213 261 150 224 217 306 207 228 215 305 308 308 304 30 29 18 2 348 336 348 324 167
294 200 123 221 210 235 234 223 12 275 216 246 280 278 277 315 294 272 292 104 18 307 280 69 286 256 309 70 354 310 15 331 284 280 301 291 34 48 25 11 1 350 13 59 65
318 62 162 260 216 209 157 239 246 255 247 241 240 242 216 271 266 253 275 82 73 20 2 41 200 262 181 150 130 215 230 294 284 269 264 300 101 62 23 14 26 17 51 69 80
272 162 152 212 12 311 213 254 262 213 263 238 258 231 222 237 208 275 247 138 116 64 3 286 274 285 306 7 341 289 315 322 279 273 343 28 335 32 16 14 27 40 57 89 107
243 60 3 190 186 238 248 322 287 236 227 224 216 234 231 262 237 227 244 159 138 161 197 300 266 263 294 245 224 325 315 336 43 5 320 14 20 16 13 13 27 32 54 77 70
326 325 167 96 145 233 151 229 312 297 251 244 252 294 245 254 297 313 272 254 202 168 163 189 223 257 222 188 310 209 125 143 116 13 20 345 80 8 28 25 24 24 30 75 112
8 240 281 130 180 257 52 10 331 319 253 291 304 286 228 215 321 3 306 318 301 190 169 220 194 264 254 188 261 195 60 62 120 50 337 358 30 351 15 17 17 17 20 34 40